Location: Arrington
(35.8681°N, 86.7092°W)
Time: 01:54:53
(UTC+00:00)

ATLAS 2AS CENTAUR R/B - Pass Details

Date: 28 February 2020
Orbit: 929 x 1283 km, 63.7° (Epoch: 05 April)

Event Time Altitude Azimuth Distance (km) Brightness Sun altitude
Rises 10:32:37 0° 333° (NNW) 4,156 5.6 -22.3°
Reaches altitude 10° 10:35:39 10° 339° (NNW) 3,144 5.0 -21.7°
Maximum altitude 10:42:48 45° 51° (NE) 1,503 3.8 -20.2°
Drops below altitude 10° 10:49:20 10° 123° (ESE) 2,886 5.7 -18.9°
Sets 10:52:00 0° 129° (SE) 3,787 6.3 -18.4°
